Showing default

FOREST-18 MANGOSHRIKHAND, 68999

Orbit data source: Space-Track

FOREST-18 MANGOSHRIKHAND, 68999 is a German payload satellite in SSO that was launched on Sun, 03 May 2026 UTC via an FALCON 9 launch vehicle from the Air Force Western Test Range (AFWTR). Payload-class satellites include a variety of spacecraft equipped with specific instruments for various scientific and technological missions. These include communications satellites like Starlink; space stations such as the ISS; scientific satellites like the Hubble; Earth observation satellites from companies like Planet Labs, Umbra, and HawkEye 360; GPS; miniature CubeSats for education and research; and military/defense satellites.

Loading next visibility...
Identifier
68999, 2026-100V
Orbit
SSO
Country
Flag of DEDE / GER
Related business
Manufacturer
OroraTech
Mission
Operational spacecraft
Bus & Motor
CUBESAT 8U, Unknown motor
Mass
~15 kg wet, ~15 kg dry
Launch date (UTC)
2026-05-03 (2 months ago)
Launch vehicle
FALCON 9
Launch site
Air Force Western Test Range (AFWTR)
Object type
Payload
Rocket body
Debris
Shape & HBR
Unknown shape, 14.5 m
Radar Cross Section
Medium (>0.1 m² and <1 m²)

Expand to show TLE details & history
Last TLE update: 15 hours ago

TLE from 15 hours ago
0 FOREST-18 MANGOSHRIKHAND
1 68999U 26100V   26175.17336378  .00000915  00000-0  95578-4 0  9992
2 68999  97.7322  72.5059 0001401 103.1838 256.9537 14.92061553  7742
Epoch: 2026-06-24T04:09Z
TLE epoch observation values (Epoch: 2026-06-24T04:09:38.630Z)
Latitude
-0.00007°
Longitude
97.76057°
Altitude
594.772 km
Speed
7.562 km/s
True Right ascension
04h 50m 01s
True Declination
0° 00' 00"
Sunlit
Object was in daylight at epoch
Visualization orbit readout
Latitude
Unknown
Longitude
Unknown
Altitude
Unknown
Speed
Unknown
Apparent Right ascension
Unknown
Apparent Declination
Unknown
Sunlit
N/A
Visualization observer readout
Local Sidereal Time
06:08:14
Azimuth
Unknown
Elevation
Unknown
Doppler factor
Unknown
Orbital elements
Apogee altitude
589.502 km
Perigee altitude
587.55 km
Semi-major axis
6,966.663 km
Eccentricity
0.00014
Inclination
97.7322°
RAAN
72.5059°
Arg. of periapsis
103.1838°
True anomaly
256.93806°
Mean anomaly
256.9537°
Eccentric anomaly
256.94588°
Mean motion
3.73255 °/min
Orbital period
96.45 mins
BSTAR
0.000095578
Loading maneuver chart data...
Computing Atmospheric mass density...
Loading historical data...
Loading historical data...
Loading historical data...
Loading historical data...
Loading historical data...
Loading historical data...
Loading historical data...

Documentation

Showing up to 5 results
|